Time,TemperatureF,DewpointF,PressureIn,WindDirection,WindDirectionDegrees,WindSpeedMPH,WindSpeedGustMPH,Humidity,HourlyPrecipIn,Conditions,Clouds,dailyrainin,SoftwareType,DateUTC
2013-01-10 00:02:00,47.5,47.0,30.12,WNW,292,4.4,5.8,98,0.08,,---,0.00,VWS V14.00,2013-01-10 06:02:00,
2013-01-10 00:07:00,47.5,47.0,30.12,NW,315,7.7,7.7,98,0.08,,---,0.00,VWS V14.00,2013-01-10 06:07:00,
2013-01-10 00:12:00,47.5,47.0,30.12,West,270,2.7,4.9,98,0.08,,---,0.00,VWS V14.00,2013-01-10 06:12:00,
2013-01-10 00:18:00,47.3,46.8,30.09,East,90,3.5,3.6,98,0.12,,---,0.04,VWS V14.00,2013-01-10 06:18:00,
2013-01-10 00:23:00,47.3,46.8,30.09,SE,135,5.8,5.8,98,0.12,,---,0.04,VWS V14.00,2013-01-10 06:23:00,
2013-01-10 00:28:00,47.3,46.8,30.09,NNW,338,4.6,4.6,98,0.12,,---,0.04,VWS V14.00,2013-01-10 06:28:00,
2013-01-10 00:33:00,47.3,46.8,30.09,SE,135,5.2,8.1,98,0.09,,---,0.04,VWS V14.00,2013-01-10 06:33:00,
2013-01-10 00:38:00,47.3,46.8,30.09,NW,315,5.5,5.5,98,0.09,,---,0.04,VWS V14.00,2013-01-10 06:38:00,
2013-01-10 00:44:00,47.3,46.8,30.09,East,90,5.8,7.2,98,0.09,,---,0.04,VWS V14.00,2013-01-10 06:44:00,
2013-01-10 00:49:00,47.3,46.8,30.09,NNE,22,5.2,5.2,98,0.09,,---,0.04,VWS V14.00,2013-01-10 06:49:00,
2013-01-10 00:55:00,47.3,46.8,30.09,NW,315,4.4,5.8,98,0.04,,---,0.04,VWS V14.00,2013-01-10 06:55:00,
2013-01-10 01:00:00,47.3,46.8,30.09,NW,315,7.2,7.2,98,0.08,,---,0.08,VWS V14.00,2013-01-10 07:00:00,
2013-01-10 01:05:00,47.3,46.8,30.09,NNE,22,5.5,7.6,98,0.08,,---,0.08,VWS V14.00,2013-01-10 07:05:00,
2013-01-10 01:10:00,47.3,46.8,30.09,NNE,22,4.6,4.9,98,0.08,,---,0.08,VWS V14.00,2013-01-10 07:10:00,
2013-01-10 01:15:00,47.3,46.8,30.09,North,0,4.9,4.9,98,0.08,,---,0.08,VWS V14.00,2013-01-10 07:15:00,
2013-01-10 01:20:00,47.3,46.8,30.09,ENE,68,4.4,4.4,98,0.04,,---,0.08,VWS V14.00,2013-01-10 07:20:00,
2013-01-10 01:25:00,47.3,46.8,30.09,North,0,4.9,4.9,98,0.04,,---,0.08,VWS V14.00,2013-01-10 07:25:00,
2013-01-10 01:30:00,47.3,46.8,30.09,SSW,202,2.7,2.7,98,0.04,,---,0.08,VWS V14.00,2013-01-10 07:30:00,
2013-01-10 01:35:00,47.3,46.8,30.09,ENE,68,3.5,3.5,98,0.08,,---,0.12,VWS V14.00,2013-01-10 07:35:00,
2013-01-10 01:40:00,47.3,46.8,30.09,NW,315,3.0,3.4,98,0.08,,---,0.12,VWS V14.00,2013-01-10 07:40:00,
2013-01-10 01:46:00,47.3,46.8,30.09,NW,315,2.7,2.9,98,0.08,,---,0.12,VWS V14.00,2013-01-10 07:46:00,
2013-01-10 01:51:00,47.5,47.0,30.09,ESE,112,5.2,5.2,98,0.08,,---,0.12,VWS V14.00,2013-01-10 07:51:00,
2013-01-10 01:56:00,47.3,46.8,30.09,SW,225,5.2,5.2,98,0.08,,---,0.12,VWS V14.00,2013-01-10 07:56:00,
2013-01-10 02:01:00,47.5,47.0,30.06,South,180,2.4,3.4,98,0.08,,---,0.16,VWS V14.00,2013-01-10 08:01:00,
2013-01-10 02:07:00,47.5,47.0,30.06,NNE,22,4.4,4.4,98,0.08,,---,0.16,VWS V14.00,2013-01-10 08:07:00,
2013-01-10 02:12:00,47.7,47.1,30.06,NE,45,2.7,2.7,98,0.08,,---,0.16,VWS V14.00,2013-01-10 08:12:00,
2013-01-10 02:17:00,47.7,47.1,30.06,NNE,22,4.9,4.9,98,0.08,,---,0.16,VWS V14.00,2013-01-10 08:17:00,
2013-01-10 02:22:00,47.7,47.1,30.06,NW,315,4.4,4.4,98,0.08,,---,0.16,VWS V14.00,2013-01-10 08:22:00,
2013-01-10 02:27:00,47.7,47.1,30.06,NE,45,2.1,2.1,98,0.08,,---,0.16,VWS V14.00,2013-01-10 08:27:00,
2013-01-10 02:34:00,47.7,47.1,30.06,NE,45,2.4,2.7,98,0.04,,---,0.16,VWS V14.00,2013-01-10 08:34:00,
2013-01-10 02:39:00,47.8,47.3,30.06,SW,225,4.4,4.4,98,0.04,,---,0.16,VWS V14.00,2013-01-10 08:39:00,
2013-01-10 02:45:00,47.8,47.3,30.06,WNW,292,5.5,5.5,98,0.04,,---,0.16,VWS V14.00,2013-01-10 08:45:00,
2013-01-10 02:50:00,47.8,47.3,30.06,North,0,3.8,3.8,98,0.04,,---,0.16,VWS V14.00,2013-01-10 08:50:00,
2013-01-10 02:55:00,48.0,47.5,30.06,NNW,338,3.5,3.5,98,0.04,,---,0.16,VWS V14.00,2013-01-10 08:55:00,
2013-01-10 03:00:00,48.0,47.5,30.03,NNW,338,3.5,3.5,98,0.00,,---,0.16,VWS V14.00,2013-01-10 09:00:00,
2013-01-10 03:06:00,48.2,47.7,30.03,NE,45,2.4,2.4,98,0.00,,---,0.16,VWS V14.00,2013-01-10 09:06:00,
2013-01-10 03:11:00,48.2,47.7,30.03,WSW,248,4.1,4.1,98,0.00,,---,0.16,VWS V14.00,2013-01-10 09:11:00,
2013-01-10 03:16:00,48.4,47.8,30.03,SE,135,4.4,4.4,98,0.00,,---,0.16,VWS V14.00,2013-01-10 09:16:00,
2013-01-10 03:21:00,48.6,48.0,30.03,NNW,338,3.0,3.0,98,0.00,,---,0.16,VWS V14.00,2013-01-10 09:21:00,
2013-01-10 03:26:00,48.4,47.8,30.03,SE,135,3.5,3.5,98,0.05,,---,0.21,VWS V14.00,2013-01-10 09:26:00,
2013-01-10 03:31:00,48.6,48.0,30.03,NNW,338,2.1,2.1,98,0.05,,---,0.21,VWS V14.00,2013-01-10 09:31:00,
2013-01-10 03:37:00,48.6,48.0,30.03,WNW,292,2.7,3.1,98,0.05,,---,0.21,VWS V14.00,2013-01-10 09:37:00,
2013-01-10 03:43:00,48.6,48.0,30.03,NNE,22,2.7,2.9,98,0.09,,---,0.25,VWS V14.00,2013-01-10 09:43:00,
2013-01-10 03:48:00,48.6,48.0,30.00,North,0,5.8,5.8,98,0.13,,---,0.29,VWS V14.00,2013-01-10 09:48:00,
2013-01-10 03:54:00,48.6,48.0,30.00,West,270,3.0,3.0,98,0.13,,---,0.29,VWS V14.00,2013-01-10 09:54:00,
2013-01-10 03:59:00,48.6,48.0,30.00,NNE,22,3.5,3.5,98,0.13,,---,0.29,VWS V14.00,2013-01-10 09:59:00,
2013-01-10 04:04:00,48.7,48.2,30.00,SE,135,2.7,2.7,98,0.13,,---,0.29,VWS V14.00,2013-01-10 10:04:00,
2013-01-10 04:09:00,48.7,48.2,30.00,East,90,2.4,5.8,98,0.17,,---,0.33,VWS V14.00,2013-01-10 10:09:00,
2013-01-10 04:14:00,48.7,48.2,30.00,North,0,2.4,4.0,98,0.17,,---,0.33,VWS V14.00,2013-01-10 10:14:00,
2013-01-10 04:19:00,48.9,48.4,30.00,NE,45,2.7,3.6,98,0.17,,---,0.33,VWS V14.00,2013-01-10 10:19:00,
2013-01-10 04:24:00,48.9,48.4,30.00,NNW,338,3.0,3.0,98,0.12,,---,0.33,VWS V14.00,2013-01-10 10:24:00,
2013-01-10 04:29:00,49.1,48.6,30.00,North,0,2.7,2.7,98,0.12,,---,0.33,VWS V14.00,2013-01-10 10:29:00,
2013-01-10 04:34:00,49.1,48.6,30.00,ENE,68,2.7,4.9,98,0.12,,---,0.33,VWS V14.00,2013-01-10 10:34:00,
2013-01-10 04:39:00,49.1,48.6,30.00,ENE,68,3.8,4.0,98,0.12,,---,0.33,VWS V14.00,2013-01-10 10:39:00,
2013-01-10 04:44:00,49.1,48.6,30.00,NNE,22,7.7,7.7,98,0.08,,---,0.33,VWS V14.00,2013-01-10 10:44:00,
2013-01-10 04:49:00,49.3,48.7,29.97,East,90,2.7,2.7,98,0.04,,---,0.33,VWS V14.00,2013-01-10 10:49:00,
2013-01-10 04:54:00,49.3,48.7,29.97,East,90,2.7,2.7,98,0.04,,---,0.33,VWS V14.00,2013-01-10 10:54:00,
2013-01-10 04:59:00,49.3,48.7,29.97,North,0,2.7,4.3,98,0.04,,---,0.33,VWS V14.00,2013-01-10 10:59:00,
2013-01-10 05:04:00,49.3,48.7,29.97,East,90,4.1,4.3,98,0.04,,---,0.33,VWS V14.00,2013-01-10 11:04:00,
2013-01-10 05:09:00,49.3,48.7,29.97,East,90,3.5,3.5,98,0.00,,---,0.33,VWS V14.00,2013-01-10 11:09:00,
2013-01-10 05:14:00,49.3,48.7,29.97,SE,135,6.0,6.0,98,0.00,,---,0.33,VWS V14.00,2013-01-10 11:14:00,
2013-01-10 05:20:00,49.5,48.9,29.97,ESE,112,4.9,4.9,98,0.00,,---,0.33,VWS V14.00,2013-01-10 11:20:00,
2013-01-10 05:25:00,49.5,48.9,29.97,ESE,112,3.0,6.3,98,0.00,,---,0.33,VWS V14.00,2013-01-10 11:25:00,
2013-01-10 05:30:00,49.5,48.9,29.97,NE,45,3.8,3.8,98,0.00,,---,0.33,VWS V14.00,2013-01-10 11:30:00,
2013-01-10 05:35:00,49.6,49.1,29.97,NNW,338,2.7,2.9,98,0.00,,---,0.33,VWS V14.00,2013-01-10 11:35:00,
2013-01-10 05:41:00,49.8,49.3,29.97,NW,315,2.4,2.7,98,0.00,,---,0.33,VWS V14.00,2013-01-10 11:41:00,
2013-01-10 05:46:00,49.8,49.3,29.97,NNW,338,2.1,2.1,98,0.00,,---,0.33,VWS V14.00,2013-01-10 11:46:00,
2013-01-10 05:51:00,49.8,49.3,29.97,North,0,3.0,3.1,98,0.00,,---,0.33,VWS V14.00,2013-01-10 11:51:00,
2013-01-10 05:56:00,49.8,49.3,29.97,East,90,3.8,3.8,98,0.00,,---,0.33,VWS V14.00,2013-01-10 11:56:00,
2013-01-10 06:03:00,49.8,49.3,29.97,NW,315,5.2,5.2,98,0.00,,---,0.33,VWS V14.00,2013-01-10 12:03:00,
2013-01-10 06:08:00,49.8,49.3,29.97,NW,315,1.0,0.0,98,0.00,,---,0.33,VWS V14.00,2013-01-10 12:08:00,
2013-01-10 06:13:00,49.8,49.3,29.97,NNW,338,2.4,2.4,98,0.00,,---,0.33,VWS V14.00,2013-01-10 12:13:00,
2013-01-10 06:18:00,49.8,49.3,29.97,WSW,248,1.0,1.0,98,0.00,,---,0.33,VWS V14.00,2013-01-10 12:18:00,
2013-01-10 06:24:00,49.6,49.1,29.97,ENE,68,1.0,1.1,98,0.00,,---,0.33,VWS V14.00,2013-01-10 12:24:00,
2013-01-10 06:29:00,49.6,49.1,29.97,North,0,1.0,2.2,98,0.00,,---,0.33,VWS V14.00,2013-01-10 12:29:00,
2013-01-10 06:34:00,49.8,49.3,29.97,WSW,248,2.7,2.7,98,0.00,,---,0.33,VWS V14.00,2013-01-10 12:34:00,
2013-01-10 06:39:00,49.8,49.3,29.97,SSW,202,1.0,0.0,98,0.00,,---,0.33,VWS V14.00,2013-01-10 12:39:00,
2013-01-10 06:45:00,49.8,49.3,29.97,WSW,248,2.1,2.1,98,0.00,,---,0.33,VWS V14.00,2013-01-10 12:45:00,
2013-01-10 06:50:00,49.8,49.3,29.97,ENE,68,1.0,1.0,98,0.00,,---,0.33,VWS V14.00,2013-01-10 12:50:00,
2013-01-10 06:55:00,49.8,49.3,29.97,NW,315,2.4,2.4,98,0.00,,---,0.33,VWS V14.00,2013-01-10 12:55:00,
2013-01-10 07:00:00,50.0,49.5,29.97,ESE,112,2.7,2.7,98,0.00,,---,0.33,VWS V14.00,2013-01-10 13:00:00,
2013-01-10 07:05:00,50.2,49.6,29.97,ENE,68,1.0,1.1,98,0.00,,---,0.33,VWS V14.00,2013-01-10 13:05:00,
2013-01-10 07:10:00,50.2,49.6,29.97,NE,45,3.5,3.5,98,0.00,,---,0.33,VWS V14.00,2013-01-10 13:10:00,
2013-01-10 07:15:00,50.4,49.8,29.97,ESE,112,2.7,2.7,98,0.00,,---,0.33,VWS V14.00,2013-01-10 13:15:00,
2013-01-10 07:20:00,50.4,49.8,29.97,NNE,22,3.0,5.6,98,0.00,,---,0.33,VWS V14.00,2013-01-10 13:20:00,
2013-01-10 07:25:00,50.5,50.0,29.97,NE,45,3.5,3.5,98,0.00,,---,0.33,VWS V14.00,2013-01-10 13:25:00,
2013-01-10 07:30:00,50.5,50.0,29.94,North,0,2.1,2.2,98,0.00,,---,0.33,VWS V14.00,2013-01-10 13:30:00,
2013-01-10 07:35:00,50.7,50.2,29.94,NNW,338,3.5,3.5,98,0.00,,---,0.33,VWS V14.00,2013-01-10 13:35:00,
2013-01-10 07:40:00,50.7,50.2,29.94,NW,315,1.0,1.3,98,0.00,,---,0.33,VWS V14.00,2013-01-10 13:40:00,
2013-01-10 07:45:00,50.7,50.2,29.97,WSW,248,1.0,1.0,98,0.00,,---,0.33,VWS V14.00,2013-01-10 13:45:00,
2013-01-10 07:50:00,50.9,50.4,29.97,ENE,68,1.0,0.0,98,0.00,,---,0.33,VWS V14.00,2013-01-10 13:50:00,
2013-01-10 07:55:00,50.9,50.4,29.97,East,90,2.7,2.7,98,0.00,,---,0.33,VWS V14.00,2013-01-10 13:55:00,
2013-01-10 08:00:00,51.1,50.5,29.94,NE,45,1.0,2.0,98,0.00,,---,0.33,VWS V14.00,2013-01-10 14:00:00,
2013-01-10 08:05:00,51.1,50.5,29.94,NW,315,2.4,2.4,98,0.00,,---,0.33,VWS V14.00,2013-01-10 14:05:00,
2013-01-10 08:10:00,51.1,50.5,29.94,North,0,2.7,2.7,98,0.00,,---,0.33,VWS V14.00,2013-01-10 14:10:00,
2013-01-10 08:15:00,51.3,50.7,29.94,NE,45,1.0,1.6,98,0.00,,---,0.33,VWS V14.00,2013-01-10 14:15:00,
2013-01-10 08:20:00,51.3,50.7,29.94,NW,315,1.0,0.0,98,0.00,,---,0.33,VWS V14.00,2013-01-10 14:20:00,
2013-01-10 08:25:00,51.4,50.9,29.94,NW,315,2.1,2.1,98,0.00,,---,0.33,VWS V14.00,2013-01-10 14:25:00,
2013-01-10 08:31:00,51.6,51.1,29.97,North,0,4.9,4.9,98,0.00,,---,0.33,VWS V14.00,2013-01-10 14:31:00,
2013-01-10 08:36:00,51.6,51.1,29.97,NNW,338,3.5,3.5,98,0.00,,---,0.33,VWS V14.00,2013-01-10 14:36:00,
2013-01-10 08:41:00,51.6,51.1,29.97,NNW,338,3.0,3.0,98,0.00,,---,0.33,VWS V14.00,2013-01-10 14:41:00,
2013-01-10 08:46:00,51.8,51.3,29.97,NNW,338,4.6,4.6,98,0.00,,---,0.33,VWS V14.00,2013-01-10 14:46:00,
2013-01-10 08:52:00,52.2,51.6,29.97,SW,225,2.7,2.7,98,0.00,,---,0.33,VWS V14.00,2013-01-10 14:52:00,
2013-01-10 08:57:00,52.2,51.6,29.97,North,0,2.4,2.7,98,0.00,,---,0.33,VWS V14.00,2013-01-10 14:57:00,
2013-01-10 09:02:00,52.3,51.8,29.97,NNW,338,4.1,4.1,98,0.00,,---,0.33,VWS V14.00,2013-01-10 15:02:00,
2013-01-10 09:07:00,52.5,52.0,29.97,North,0,2.7,2.7,98,0.00,,---,0.33,VWS V14.00,2013-01-10 15:07:00,
2013-01-10 09:12:00,52.5,52.0,29.97,NW,315,3.8,3.8,98,0.00,,---,0.33,VWS V14.00,2013-01-10 15:12:00,
2013-01-10 09:18:00,52.7,52.2,29.94,NNW,338,3.0,3.0,98,0.00,,---,0.33,VWS V14.00,2013-01-10 15:18:00,
2013-01-10 09:23:00,52.7,52.2,29.94,NW,315,3.0,3.0,98,0.00,,---,0.33,VWS V14.00,2013-01-10 15:23:00,
2013-01-10 09:28:00,52.7,52.2,29.94,NW,315,4.1,4.1,98,0.00,,---,0.33,VWS V14.00,2013-01-10 15:28:00,
2013-01-10 09:35:00,52.7,52.2,29.94,NNW,338,3.5,3.5,98,0.00,,---,0.33,VWS V14.00,2013-01-10 15:35:00,
2013-01-10 09:40:00,52.7,52.2,29.94,ESE,112,1.0,1.3,98,0.04,,---,0.37,VWS V14.00,2013-01-10 15:40:00,
2013-01-10 09:46:00,52.9,52.3,29.94,North,0,1.0,1.6,98,0.04,,---,0.37,VWS V14.00,2013-01-10 15:46:00,
2013-01-10 09:51:00,52.9,52.3,29.94,NNW,338,2.7,2.7,98,0.04,,---,0.37,VWS V14.00,2013-01-10 15:51:00,
2013-01-10 09:56:00,52.9,52.3,29.94,North,0,1.0,1.1,98,0.04,,---,0.37,VWS V14.00,2013-01-10 15:56:00,
2013-01-10 10:03:00,53.1,52.5,29.94,North,0,3.0,3.0,98,0.04,,---,0.37,VWS V14.00,2013-01-10 16:03:00,
2013-01-10 10:08:00,53.2,52.7,29.94,North,0,1.0,2.7,98,0.04,,---,0.37,VWS V14.00,2013-01-10 16:08:00,
2013-01-10 10:13:00,53.2,52.7,29.94,NW,315,1.0,0.0,98,0.04,,---,0.37,VWS V14.00,2013-01-10 16:13:00,
2013-01-10 10:18:00,53.4,52.9,29.94,NW,315,2.4,2.4,98,0.04,,---,0.37,VWS V14.00,2013-01-10 16:18:00,
2013-01-10 10:23:00,53.6,53.0,29.94,NE,45,2.1,2.1,98,0.04,,---,0.37,VWS V14.00,2013-01-10 16:23:00,
2013-01-10 10:28:00,53.8,53.2,29.94,NW,315,1.0,0.0,98,0.04,,---,0.37,VWS V14.00,2013-01-10 16:28:00,
2013-01-10 10:33:00,53.8,53.2,29.91,SSE,158,1.0,0.0,98,0.04,,---,0.37,VWS V14.00,2013-01-10 16:33:00,
2013-01-10 10:38:00,54.0,53.4,29.91,NE,45,4.1,4.1,98,0.00,,---,0.37,VWS V14.00,2013-01-10 16:38:00,
2013-01-10 10:43:00,54.1,53.6,29.91,ENE,68,2.1,2.1,98,0.00,,---,0.37,VWS V14.00,2013-01-10 16:43:00,
2013-01-10 10:48:00,54.3,53.8,29.91,ESE,112,2.4,2.5,98,0.00,,---,0.37,VWS V14.00,2013-01-10 16:48:00,
2013-01-10 10:54:00,54.3,53.8,29.91,NW,315,2.4,2.4,98,0.00,,---,0.37,VWS V14.00,2013-01-10 16:54:00,
2013-01-10 10:59:00,54.5,54.0,29.91,North,0,1.0,1.1,98,0.00,,---,0.37,VWS V14.00,2013-01-10 16:59:00,
2013-01-10 11:05:00,54.5,54.0,29.91,SSE,158,1.0,2.7,98,0.00,,---,0.37,VWS V14.00,2013-01-10 17:05:00,
2013-01-10 11:10:00,54.7,54.1,29.91,North,0,1.0,0.0,98,0.00,,---,0.37,VWS V14.00,2013-01-10 17:10:00,
2013-01-10 11:15:00,54.7,54.1,29.91,ENE,68,4.1,4.1,98,0.00,,---,0.37,VWS V14.00,2013-01-10 17:15:00,
2013-01-10 11:20:00,54.9,54.3,29.91,East,90,1.0,2.5,98,0.00,,---,0.37,VWS V14.00,2013-01-10 17:20:00,
2013-01-10 11:25:00,55.0,54.5,29.91,WSW,248,2.1,2.1,98,0.00,,---,0.37,VWS V14.00,2013-01-10 17:25:00,
2013-01-10 11:30:00,55.0,54.5,29.88,East,90,1.0,2.0,98,0.00,,---,0.37,VWS V14.00,2013-01-10 17:30:00,
2013-01-10 11:35:00,55.2,54.7,29.88,NE,45,1.0,0.0,98,0.00,,---,0.37,VWS V14.00,2013-01-10 17:35:00,
2013-01-10 11:40:00,55.2,54.7,29.88,East,90,1.0,2.9,98,0.00,,---,0.37,VWS V14.00,2013-01-10 17:40:00,
2013-01-10 11:45:00,55.2,54.7,29.88,ESE,112,1.0,1.1,98,0.00,,---,0.37,VWS V14.00,2013-01-10 17:45:00,
2013-01-10 11:50:00,55.6,55.0,29.88,SSE,158,3.0,3.0,98,0.00,,---,0.37,VWS V14.00,2013-01-10 17:50:00,
2013-01-10 11:55:00,55.6,55.0,29.88,SE,135,1.0,1.0,98,0.00,,---,0.37,VWS V14.00,2013-01-10 17:55:00,
2013-01-10 12:00:00,55.8,55.2,29.85,East,90,1.0,1.3,98,0.00,,---,0.37,VWS V14.00,2013-01-10 18:00:00,
2013-01-10 12:05:00,55.9,55.4,29.85,ESE,112,2.7,2.7,98,0.00,,---,0.37,VWS V14.00,2013-01-10 18:05:00,
2013-01-10 12:10:00,55.9,55.4,29.85,ESE,112,6.3,6.3,98,0.00,,---,0.37,VWS V14.00,2013-01-10 18:10:00,
2013-01-10 12:16:00,56.3,55.8,29.85,SE,135,5.5,5.5,98,0.00,,---,0.37,VWS V14.00,2013-01-10 18:16:00,
2013-01-10 12:21:00,56.5,55.9,29.85,SE,135,6.0,6.0,98,0.00,,---,0.37,VWS V14.00,2013-01-10 18:21:00,
2013-01-10 12:26:00,56.8,56.3,29.85,SE,135,5.2,5.2,98,0.00,,---,0.37,VWS V14.00,2013-01-10 18:26:00,
2013-01-10 12:33:00,57.4,56.8,29.82,ESE,112,3.0,3.6,98,0.00,,---,0.37,VWS V14.00,2013-01-10 18:33:00,
2013-01-10 12:38:00,57.7,57.2,29.82,SE,135,5.5,5.5,98,0.00,,---,0.37,VWS V14.00,2013-01-10 18:38:00,
2013-01-10 12:43:00,57.9,57.4,29.82,ESE,112,3.5,4.0,98,0.00,,---,0.37,VWS V14.00,2013-01-10 18:43:00,
2013-01-10 12:48:00,58.3,57.7,29.79,ESE,112,4.6,4.9,98,0.00,,---,0.37,VWS V14.00,2013-01-10 18:48:00,
2013-01-10 12:53:00,58.5,57.9,29.79,South,180,4.1,4.9,98,0.00,,---,0.37,VWS V14.00,2013-01-10 18:53:00,
2013-01-10 12:58:00,58.6,58.1,29.79,North,0,4.1,4.1,98,0.00,,---,0.37,VWS V14.00,2013-01-10 18:58:00,
2013-01-10 13:03:00,58.8,58.3,29.76,SE,135,6.3,6.5,98,0.00,,---,0.37,VWS V14.00,2013-01-10 19:03:00,
2013-01-10 13:08:00,59.2,58.6,29.76,ESE,112,9.1,9.1,98,0.00,,---,0.37,VWS V14.00,2013-01-10 19:08:00,
2013-01-10 13:13:00,59.7,59.2,29.76,ESE,112,8.6,11.0,98,0.00,,---,0.37,VWS V14.00,2013-01-10 19:13:00,
2013-01-10 13:19:00,60.3,59.7,29.74,ESE,112,4.9,9.6,98,0.00,,---,0.37,VWS V14.00,2013-01-10 19:19:00,
2013-01-10 13:24:00,60.6,60.1,29.74,East,90,10.8,10.8,98,0.00,,---,0.37,VWS V14.00,2013-01-10 19:24:00,
2013-01-10 13:29:00,61.0,60.4,29.74,SSE,158,16.1,16.1,98,0.00,,---,0.37,VWS V14.00,2013-01-10 19:29:00,
2013-01-10 13:34:00,61.9,61.3,29.76,ESE,112,13.3,13.3,98,0.00,,---,0.37,VWS V14.00,2013-01-10 19:34:00,
2013-01-10 13:39:00,62.1,61.5,29.76,SE,135,9.1,10.3,98,0.00,,---,0.37,VWS V14.00,2013-01-10 19:39:00,
2013-01-10 13:44:00,62.2,61.7,29.76,SSE,158,11.1,11.1,98,0.00,,---,0.37,VWS V14.00,2013-01-10 19:44:00,
2013-01-10 13:49:00,62.6,62.0,29.74,SE,135,13.9,13.9,98,0.00,,---,0.37,VWS V14.00,2013-01-10 19:49:00,
2013-01-10 13:55:00,62.8,62.2,29.74,SSE,158,10.8,11.0,98,0.00,,---,0.37,VWS V14.00,2013-01-10 19:55:00,
2013-01-10 14:00:00,62.8,62.2,29.74,SSE,158,11.9,11.9,98,0.00,,---,0.37,VWS V14.00,2013-01-10 20:00:00,
2013-01-10 14:05:00,63.0,62.4,29.74,SE,135,8.0,9.8,98,0.00,,---,0.37,VWS V14.00,2013-01-10 20:05:00,
2013-01-10 14:10:00,63.0,62.4,29.74,SE,135,14.1,14.1,98,0.00,,---,0.37,VWS V14.00,2013-01-10 20:10:00,
2013-01-10 14:15:00,63.0,62.4,29.74,SSE,158,14.7,14.7,98,0.00,,---,0.37,VWS V14.00,2013-01-10 20:15:00,
2013-01-10 14:20:00,63.1,62.6,29.74,SSE,158,10.5,10.5,98,0.00,,---,0.37,VWS V14.00,2013-01-10 20:20:00,
2013-01-10 14:25:00,63.5,62.9,29.74,SSE,158,13.6,13.6,98,0.00,,---,0.37,VWS V14.00,2013-01-10 20:25:00,
2013-01-10 14:30:00,63.5,62.9,29.74,ESE,112,11.6,13.0,98,0.00,,---,0.37,VWS V14.00,2013-01-10 20:30:00,
2013-01-10 14:35:00,63.5,62.9,29.74,ESE,112,13.9,13.9,98,0.00,,---,0.37,VWS V14.00,2013-01-10 20:35:00,
2013-01-10 14:40:00,63.5,62.9,29.74,South,180,11.1,11.2,98,0.00,,---,0.37,VWS V14.00,2013-01-10 20:40:00,
2013-01-10 14:45:00,63.5,62.9,29.74,SSE,158,11.9,12.8,98,0.00,,---,0.37,VWS V14.00,2013-01-10 20:45:00,
2013-01-10 14:50:00,63.7,63.1,29.74,SSE,158,17.8,17.8,98,0.00,,---,0.37,VWS V14.00,2013-01-10 20:50:00,
2013-01-10 14:55:00,63.7,63.1,29.74,South,180,8.8,12.1,98,0.00,,---,0.37,VWS V14.00,2013-01-10 20:55:00,
2013-01-10 15:00:00,63.7,63.1,29.71,South,180,13.6,13.6,98,0.00,,---,0.37,VWS V14.00,2013-01-10 21:00:00,
2013-01-10 15:05:00,63.7,63.1,29.71,SSE,158,8.0,9.0,98,0.00,,---,0.37,VWS V14.00,2013-01-10 21:05:00,
2013-01-10 15:10:00,63.7,63.1,29.71,SE,135,10.5,14.5,98,0.00,,---,0.37,VWS V14.00,2013-01-10 21:10:00,
2013-01-10 15:15:00,63.7,63.1,29.71,SSE,158,13.6,13.6,98,0.00,,---,0.37,VWS V14.00,2013-01-10 21:15:00,
2013-01-10 15:20:00,63.9,63.3,29.71,SSE,158,11.6,11.6,98,0.00,,---,0.37,VWS V14.00,2013-01-10 21:20:00,
2013-01-10 15:25:00,64.2,63.7,29.71,SE,135,16.1,16.1,98,0.00,,---,0.37,VWS V14.00,2013-01-10 21:25:00,
2013-01-10 15:30:00,64.2,63.7,29.71,SSE,158,9.1,11.9,98,0.00,,---,0.37,VWS V14.00,2013-01-10 21:30:00,
2013-01-10 15:35:00,64.4,63.8,29.71,East,90,12.7,12.7,98,0.00,,---,0.37,VWS V14.00,2013-01-10 21:35:00,
2013-01-10 15:40:00,64.4,63.8,29.71,SSE,158,10.5,17.5,98,0.00,,---,0.37,VWS V14.00,2013-01-10 21:40:00,
2013-01-10 15:45:00,64.4,63.8,29.71,SSE,158,13.9,13.9,98,0.00,,---,0.37,VWS V14.00,2013-01-10 21:45:00,
2013-01-10 15:50:00,64.4,63.8,29.71,SE,135,13.3,15.4,98,0.00,,---,0.37,VWS V14.00,2013-01-10 21:50:00,
2013-01-10 15:55:00,64.4,63.8,29.71,SE,135,10.8,10.8,98,0.00,,---,0.37,VWS V14.00,2013-01-10 21:55:00,
2013-01-10 16:00:00,64.4,63.8,29.71,SSW,202,16.1,16.1,98,0.00,,---,0.37,VWS V14.00,2013-01-10 22:00:00,
2013-01-10 16:05:00,64.4,63.8,29.71,SE,135,11.6,11.6,98,0.00,,---,0.37,VWS V14.00,2013-01-10 22:05:00,
2013-01-10 16:10:00,64.4,63.8,29.71,SE,135,11.6,15.7,98,0.00,,---,0.37,VWS V14.00,2013-01-10 22:10:00,
2013-01-10 16:15:00,64.4,63.8,29.71,South,180,12.7,12.7,98,0.00,,---,0.37,VWS V14.00,2013-01-10 22:15:00,
2013-01-10 16:21:00,64.4,63.8,29.71,ESE,112,14.1,14.1,98,0.00,,---,0.37,VWS V14.00,2013-01-10 22:21:00,
2013-01-10 16:27:00,64.4,63.8,29.71,South,180,14.1,14.1,98,0.00,,---,0.37,VWS V14.00,2013-01-10 22:27:00,
2013-01-10 16:32:00,64.4,63.8,29.71,SE,135,13.3,13.3,98,0.00,,---,0.37,VWS V14.00,2013-01-10 22:32:00,
2013-01-10 16:38:00,64.4,63.8,29.71,South,180,9.1,13.2,98,0.00,,---,0.37,VWS V14.00,2013-01-10 22:38:00,
2013-01-10 16:44:00,64.4,63.8,29.71,ESE,112,13.6,14.5,98,0.00,,---,0.37,VWS V14.00,2013-01-10 22:44:00,
2013-01-10 16:49:00,64.4,63.8,29.68,SSE,158,10.8,10.8,98,0.00,,---,0.37,VWS V14.00,2013-01-10 22:49:00,
2013-01-10 16:54:00,64.4,63.8,29.68,SSE,158,15.0,15.0,98,0.00,,---,0.37,VWS V14.00,2013-01-10 22:54:00,
2013-01-10 16:59:00,64.4,63.8,29.68,SSE,158,13.6,13.6,98,0.00,,---,0.37,VWS V14.00,2013-01-10 22:59:00,
2013-01-10 17:04:00,64.4,63.8,29.68,South,180,10.0,10.0,98,0.00,,---,0.37,VWS V14.00,2013-01-10 23:04:00,
2013-01-10 17:09:00,64.4,63.8,29.68,SE,135,8.0,12.1,98,0.00,,---,0.37,VWS V14.00,2013-01-10 23:09:00,
2013-01-10 17:14:00,64.4,63.8,29.68,SE,135,8.8,8.8,98,0.00,,---,0.37,VWS V14.00,2013-01-10 23:14:00,
2013-01-10 17:19:00,64.4,63.8,29.68,SE,135,10.5,10.5,98,0.00,,---,0.37,VWS V14.00,2013-01-10 23:19:00,
2013-01-10 17:24:00,64.4,63.8,29.68,SSE,158,7.7,7.7,98,0.00,,---,0.37,VWS V14.00,2013-01-10 23:24:00,
2013-01-10 17:29:00,64.4,63.8,29.68,SSE,158,8.6,8.6,98,0.00,,---,0.37,VWS V14.00,2013-01-10 23:29:00,
2013-01-10 17:34:00,64.4,63.8,29.68,SSW,202,8.3,8.3,98,0.00,,---,0.37,VWS V14.00,2013-01-10 23:34:00,
2013-01-10 17:39:00,62.6,61.5,29.68,SSE,158,8.8,8.8,96,0.00,,---,0.37,VWS V14.00,2013-01-10 23:39:00,
2013-01-10 17:44:00,62.6,61.5,29.68,SSE,158,4.6,6.3,96,0.00,,---,0.37,VWS V14.00,2013-01-10 23:44:00,
2013-01-10 17:49:00,62.6,61.5,29.68,SSE,158,4.6,4.9,96,0.00,,---,0.37,VWS V14.00,2013-01-10 23:49:00,
2013-01-10 17:55:00,62.6,61.5,29.68,SE,135,7.7,7.7,96,0.00,,---,0.37,VWS V14.00,2013-01-10 23:55:00,
2013-01-10 18:01:00,62.6,61.5,29.68,SSE,158,5.2,5.2,96,0.00,,---,0.37,VWS V14.00,2013-01-11 00:01:00,
2013-01-10 18:06:00,62.6,61.5,29.68,SSW,202,8.6,8.6,96,0.00,,---,0.37,VWS V14.00,2013-01-11 00:06:00,
2013-01-10 18:11:00,62.6,61.5,29.68,South,180,5.5,5.6,96,0.00,,---,0.37,VWS V14.00,2013-01-11 00:11:00,
2013-01-10 18:16:00,62.6,61.5,29.68,SSE,158,4.6,4.6,96,0.00,,---,0.37,VWS V14.00,2013-01-11 00:16:00,
2013-01-10 18:21:00,62.6,61.5,29.68,SSE,158,4.6,6.3,96,0.00,,---,0.37,VWS V14.00,2013-01-11 00:21:00,
2013-01-10 18:26:00,62.6,61.5,29.68,SSE,158,6.0,6.3,96,0.00,,---,0.37,VWS V14.00,2013-01-11 00:26:00,
2013-01-10 18:31:00,62.6,61.5,29.68,South,180,6.3,6.3,96,0.00,,---,0.37,VWS V14.00,2013-01-11 00:31:00,
2013-01-10 18:36:00,62.6,61.5,29.68,SE,135,5.8,5.8,96,0.00,,---,0.37,VWS V14.00,2013-01-11 00:36:00,
2013-01-10 18:42:00,62.6,61.5,29.68,South,180,8.0,8.0,96,0.00,,---,0.37,VWS V14.00,2013-01-11 00:42:00,
2013-01-10 18:47:00,62.6,61.5,29.68,SSW,202,7.7,7.7,96,0.00,,---,0.37,VWS V14.00,2013-01-11 00:47:00,
2013-01-10 18:52:00,62.6,61.5,29.68,West,270,5.2,5.2,96,0.00,,---,0.37,VWS V14.00,2013-01-11 00:52:00,
2013-01-10 18:57:00,62.1,61.5,29.68,SSW,202,3.0,4.0,98,0.00,,---,0.37,VWS V14.00,2013-01-11 00:57:00,
2013-01-10 19:02:00,61.9,61.3,29.68,South,180,4.9,4.9,98,0.00,,---,0.37,VWS V14.00,2013-01-11 01:02:00,
2013-01-10 19:07:00,61.9,61.3,29.68,SSW,202,3.8,4.0,98,0.04,,---,0.41,VWS V14.00,2013-01-11 01:07:00,
2013-01-10 19:12:00,61.9,61.3,29.68,SW,225,4.6,4.6,98,0.04,,---,0.41,VWS V14.00,2013-01-11 01:12:00,
2013-01-10 19:17:00,61.9,61.3,29.68,South,180,5.8,5.8,98,0.04,,---,0.41,VWS V14.00,2013-01-11 01:17:00,
2013-01-10 19:22:00,62.1,61.5,29.68,South,180,7.7,7.7,98,0.04,,---,0.41,VWS V14.00,2013-01-11 01:22:00,
2013-01-10 19:27:00,62.1,61.5,29.68,SSW,202,8.0,9.8,98,0.04,,---,0.41,VWS V14.00,2013-01-11 01:27:00,
2013-01-10 19:32:00,62.2,61.7,29.68,South,180,11.1,11.1,98,0.04,,---,0.41,VWS V14.00,2013-01-11 01:32:00,
2013-01-10 19:37:00,62.2,61.7,29.68,SSW,202,10.2,10.2,98,0.04,,---,0.41,VWS V14.00,2013-01-11 01:37:00,
2013-01-10 19:43:00,62.2,61.7,29.68,SW,225,8.3,8.7,98,0.04,,---,0.41,VWS V14.00,2013-01-11 01:43:00,
2013-01-10 19:48:00,62.6,62.0,29.68,SSW,202,14.4,14.4,98,0.04,,---,0.41,VWS V14.00,2013-01-11 01:48:00,
2013-01-10 19:53:00,62.6,62.0,29.68,SSE,158,13.3,13.3,98,0.04,,---,0.41,VWS V14.00,2013-01-11 01:53:00,
2013-01-10 19:58:00,62.6,62.0,29.68,SSW,202,11.1,11.1,98,0.04,,---,0.41,VWS V14.00,2013-01-11 01:58:00,
2013-01-10 20:03:00,62.6,62.0,29.68,SSE,158,10.5,10.5,98,0.04,,---,0.41,VWS V14.00,2013-01-11 02:03:00,
2013-01-10 20:08:00,62.6,62.0,29.68,SW,225,10.0,10.0,98,0.00,,---,0.41,VWS V14.00,2013-01-11 02:08:00,
2013-01-10 20:13:00,62.8,62.2,29.68,SSE,158,10.8,10.8,98,0.00,,---,0.41,VWS V14.00,2013-01-11 02:13:00,
2013-01-10 20:19:00,62.8,62.2,29.68,SSW,202,11.9,11.9,98,0.00,,---,0.41,VWS V14.00,2013-01-11 02:19:00,
2013-01-10 20:24:00,63.0,62.4,29.68,SSE,158,14.7,14.7,98,0.00,,---,0.41,VWS V14.00,2013-01-11 02:24:00,
2013-01-10 20:29:00,62.8,62.2,29.68,SW,225,7.2,8.5,98,0.00,,---,0.41,VWS V14.00,2013-01-11 02:29:00,
2013-01-10 20:34:00,62.8,62.2,29.68,SW,225,8.0,10.7,98,0.00,,---,0.41,VWS V14.00,2013-01-11 02:34:00,
2013-01-10 20:39:00,62.8,62.2,29.68,SW,225,8.6,15.2,98,0.04,,---,0.45,VWS V14.00,2013-01-11 02:39:00,
2013-01-10 20:44:00,62.4,61.8,29.68,SSW,202,17.2,25.5,98,0.08,,---,0.49,VWS V14.00,2013-01-11 02:44:00,
2013-01-10 20:49:00,61.9,61.3,29.71,SSW,202,20.3,20.3,98,0.08,,---,0.49,VWS V14.00,2013-01-11 02:49:00,
2013-01-10 20:54:00,61.7,61.1,29.71,SSE,158,8.6,11.9,98,0.08,,---,0.49,VWS V14.00,2013-01-11 02:54:00,
2013-01-10 20:59:00,61.7,61.1,29.71,West,270,10.5,11.0,98,0.08,,---,0.49,VWS V14.00,2013-01-11 02:59:00,
2013-01-10 21:05:00,61.7,61.1,29.71,SW,225,6.0,6.5,98,0.08,,---,0.49,VWS V14.00,2013-01-11 03:05:00,
2013-01-10 21:10:00,61.7,61.1,29.71,WSW,248,5.5,8.1,98,0.08,,---,0.49,VWS V14.00,2013-01-11 03:10:00,
2013-01-10 21:16:00,61.5,61.0,29.71,NW,315,9.1,10.1,98,0.08,,---,0.49,VWS V14.00,2013-01-11 03:16:00,
2013-01-10 21:21:00,61.5,61.0,29.71,WSW,248,9.1,9.1,98,0.08,,---,0.49,VWS V14.00,2013-01-11 03:21:00,
2013-01-10 21:26:00,61.3,60.8,29.71,WSW,248,7.7,7.7,98,0.08,,---,0.49,VWS V14.00,2013-01-11 03:26:00,
2013-01-10 21:32:00,61.3,60.8,29.71,WSW,248,10.5,10.5,98,0.08,,---,0.49,VWS V14.00,2013-01-11 03:32:00,
2013-01-10 21:38:00,61.2,60.6,29.71,West,270,7.2,7.2,98,0.08,,---,0.49,VWS V14.00,2013-01-11 03:38:00,
2013-01-10 21:44:00,61.0,60.4,29.71,South,180,5.2,5.2,98,0.00,,---,0.49,VWS V14.00,2013-01-11 03:44:00,
2013-01-10 21:49:00,60.8,60.2,29.68,SW,225,13.3,13.3,98,0.00,,---,0.49,VWS V14.00,2013-01-11 03:49:00,
2013-01-10 21:54:00,60.8,60.2,29.68,SW,225,10.8,10.8,98,0.00,,---,0.49,VWS V14.00,2013-01-11 03:54:00,
2013-01-10 21:59:00,60.6,60.1,29.68,West,270,4.4,6.0,98,0.00,,---,0.49,VWS V14.00,2013-01-11 03:59:00,
2013-01-10 22:04:00,60.6,60.1,29.71,SSE,158,6.3,6.3,98,0.00,,---,0.49,VWS V14.00,2013-01-11 04:04:00,
2013-01-10 22:09:00,60.6,60.1,29.71,South,180,7.2,7.2,98,0.00,,---,0.49,VWS V14.00,2013-01-11 04:09:00,
2013-01-10 22:14:00,60.6,60.1,29.71,South,180,5.2,7.2,98,0.00,,---,0.49,VWS V14.00,2013-01-11 04:14:00,
2013-01-10 22:19:00,60.4,59.9,29.71,SSE,158,8.0,8.0,98,0.00,,---,0.49,VWS V14.00,2013-01-11 04:19:00,
2013-01-10 22:24:00,60.4,59.9,29.71,WSW,248,8.0,8.0,98,0.00,,---,0.49,VWS V14.00,2013-01-11 04:24:00,
2013-01-10 22:29:00,60.3,59.7,29.71,SSW,202,8.6,8.6,98,0.00,,---,0.49,VWS V14.00,2013-01-11 04:29:00,
2013-01-10 22:34:00,60.3,59.7,29.71,SSW,202,5.8,8.7,98,0.00,,---,0.49,VWS V14.00,2013-01-11 04:34:00,
2013-01-10 22:39:00,60.3,59.7,29.71,SSW,202,5.5,5.5,98,0.00,,---,0.49,VWS V14.00,2013-01-11 04:39:00,
2013-01-10 22:44:00,60.1,59.5,29.71,SW,225,8.0,8.0,98,0.00,,---,0.49,VWS V14.00,2013-01-11 04:44:00,
2013-01-10 22:50:00,59.9,59.3,29.68,WSW,248,8.8,8.8,98,0.00,,---,0.49,VWS V14.00,2013-01-11 04:50:00,
2013-01-10 22:56:00,59.7,59.2,29.68,WSW,248,5.5,5.5,98,0.00,,---,0.49,VWS V14.00,2013-01-11 04:56:00,
2013-01-10 23:01:00,59.7,59.2,29.68,SW,225,13.6,13.6,98,0.00,,---,0.49,VWS V14.00,2013-01-11 05:01:00,
2013-01-10 23:03:00,59.7,59.2,29.68,SSW,202,5.5,7.2,98,0.00,,---,0.49,VWS V14.00,2013-01-11 05:03:00,
2013-01-10 23:04:00,59.7,59.2,29.68,SW,225,8.3,8.7,98,0.00,,---,0.49,VWS V14.00,2013-01-11 05:04:00,
2013-01-10 23:09:00,59.7,59.2,29.68,SW,225,6.3,6.3,98,0.00,,---,0.49,VWS V14.00,2013-01-11 05:09:00,
2013-01-10 23:13:00,59.7,59.2,29.68,SW,225,6.9,6.9,98,0.00,,---,0.49,VWS V14.00,2013-01-11 05:13:00,
2013-01-10 23:18:00,59.7,59.2,29.68,SSW,202,4.9,6.5,98,0.00,,---,0.49,VWS V14.00,2013-01-11 05:18:00,
2013-01-10 23:24:00,59.7,59.2,29.68,South,180,6.9,6.9,98,0.00,,---,0.49,VWS V14.00,2013-01-11 05:24:00,
2013-01-10 23:30:00,59.7,59.2,29.68,NNE,22,4.1,5.8,98,0.00,,---,0.49,VWS V14.00,2013-01-11 05:30:00,
2013-01-10 23:35:00,59.5,59.0,29.68,SSW,202,6.0,6.0,98,0.00,,---,0.49,VWS V14.00,2013-01-11 05:35:00,
2013-01-10 23:41:00,59.4,58.8,29.68,SSW,202,6.9,6.9,98,0.00,,---,0.49,VWS V14.00,2013-01-11 05:41:00,
2013-01-10 23:46:00,59.2,58.6,29.68,WSW,248,6.0,6.0,98,0.00,,---,0.49,VWS V14.00,2013-01-11 05:46:00,
2013-01-10 23:51:00,59.2,58.6,29.68,SW,225,5.8,6.5,98,0.00,,---,0.49,VWS V14.00,2013-01-11 05:51:00,
2013-01-10 23:57:00,59.0,58.4,29.68,WSW,248,8.0,8.0,98,0.00,,---,0.49,VWS V14.00,2013-01-11 05:57:00,